Overview Statistics Trail Chart Weather Telemetry Raw packets
 

This is the latest recevied weather packets stored in our database for station/object IR9AK-10. If no packets are shown the sender has not sent any weather packets the latest 10 day(s).

<< 29 30 31 32 33 34 35 >>
Time Temp. Humidity Pressure Rain* Wind** Luminosity Snow
1788147793 40° C 39% 1059.6 hPa - - - -
1788147194 40.56° C 38% 1059.6 hPa - - - -
1788146595 40.56° C 38% 1059.7 hPa - - - -
1788145997 40.56° C 38% 1059.8 hPa - - - -
1788145398 40.56° C 38% 1059.9 hPa - - - -
1788144799 40.56° C 38% 1060 hPa - - - -
1788144199 40.56° C 38% 1060 hPa - - - -
1788143600 40° C 38% 1060.1 hPa - - - -
1788143000 40.56° C 37% 1060.2 hPa - - - -
1788142400 40.56° C 37% 1060.1 hPa - - - -
1788141802 40.56° C 36% 1060.1 hPa - - - -
1788141202 40.56° C 36% 1060.1 hPa - - - -
1788140603 40.56° C 36% 1060.2 hPa - - - -
1788140004 40.56° C 36% 1060.2 hPa - - - -
1788139406 40.56° C 38% 1060.2 hPa - - - -
1788138806 40.56° C 40% 1060.2 hPa - - - -
1788138208 40.56° C 40% 1060.1 hPa - - - -
1788137609 41.11° C 39% 1060 hPa - - - -
1788137009 40.56° C 40% 1060.1 hPa - - - -
1788136411 41.11° C 39% 1060.1 hPa - - - -
1788135813 40.56° C 40% 1060.3 hPa - - - -
1788135214 41.11° C 40% 1060.4 hPa - - - -
1788134614 40.56° C 40% 1060.3 hPa - - - -
1788134016 179.44° C 41% 1060.4 hPa - - - -
1788133418 41.11° C 41% 1060.5 hPa - - - -

* Rain since midnight (hover to see other rain measurements)
** Current wind speed in m/s (hover to see current wind gust speed)